Naples, Italy

7:51 PM CEST on September 30, 2016 (GMT +0200)
Capodichino Mil

Weather History for LIRN - March, 2012

Change the Weather History Date:

Thursday, March 1, 2012

  Actual Average Record
Temperature  
Mean Temperature 57 °F -  
Max Temperature 68 °F 57 °F 68 °F (2002)
Min Temperature 46 °F 43 °F 32 °F (2005)
Degree Days  
Heating Degree Days 8    
Growing Degree Days 7 (Base 50)    
Moisture  
Dew Point 39 °F    
Average Humidity 54    
Maximum Humidity 87    
Minimum Humidity 32    
Precipitation  
Precipitation 0.00 in - - ()
Sea Level Pressure  
Sea Level Pressure 30.14 in    
Wind  
Wind Speed 5 mph ()    
Max Wind Speed 15 mph    
Max Gust Speed -    
Visibility 4.1 miles    
Events      
Averages and records for this station are not official NWS values.
T = Trace of Precipitation, MM = Missing Value Source: Averaged Metar Reports

Daily Weather History Graph

Daily Weather History Graph

Search for Another Location

Airport or City:

Trip Planner

Search our weather history database for the weather conditions in past years. The results will help you decide how hot, cold, wet, or windy it might be!

Date:

Astronomy

Mar. 01, 2012 Rise Set
Actual Time 6:36 AM CET 5:54 PM CET
Civil Twilight 6:09 AM CET 6:21 PM CET
Nautical Twilight 5:37 AM CET 6:53 PM CET
Astronomical Twilight 5:05 AM CET 7:25 PM CET
Moon 10:58 AM CET (3/1) 1:21 AM CET (3/1)
Length of Visible Light 12h 12m
Length of Day
11h 17m
First Quarter, 54% of the Moon is Illuminated
Mar 1
First Quarter
Mar 8
Full
Mar 15
Last Quarter
Mar 22
New
Mar 30
First Quarter

Hourly Weather History & Observations

Time (CET) Temp. Windchill Dew Point Humidity Pressure Visibility Wind Dir Wind Speed Gust Speed Precip Events Conditions
12:20 AM 48.2 °F - 42.8 °F 82% 30.06 in 3.7 mi North 3.5 mph - N/A   Unknown
12:50 AM 48.2 °F - 44.6 °F 87% 30.06 in 3.7 mi NNW 3.5 mph - N/A   Unknown
1:20 AM 48.2 °F - 44.6 °F 87% 30.06 in 4.3 mi NW 3.5 mph - N/A   Unknown
1:50 AM 50.0 °F - 44.6 °F 82% 30.06 in 4.3 mi NNW 5.8 mph - N/A   Unknown
2:20 AM 50.0 °F - 42.8 °F 76% 30.06 in 4.3 mi NNW 6.9 mph - N/A   Unknown
2:50 AM 51.8 °F - 41.0 °F 67% 30.06 in 4.3 mi NW 6.9 mph - N/A   Unknown
3:20 AM 51.8 °F - 39.2 °F 62% 30.06 in 4.3 mi NNW 4.6 mph - N/A   Unknown
3:50 AM 53.6 °F - 39.2 °F 58% 30.06 in - NNW 4.6 mph - N/A   Clear
4:20 AM 50.0 °F - 39.2 °F 66% 30.06 in - WNW 3.5 mph - N/A   Clear
4:50 AM 48.2 °F - 37.4 °F 66% 30.06 in - NW 3.5 mph - N/A   Clear
5:20 AM 48.2 °F - 39.2 °F 71% 30.06 in - Variable 2.3 mph - N/A   Clear
5:50 AM 46.4 °F 45.2 °F 35.6 °F 66% 30.09 in - North 3.5 mph - N/A   Clear
6:20 AM 50.0 °F - 39.2 °F 66% 30.09 in - North 3.5 mph - N/A   Clear
6:50 AM 46.4 °F - 37.4 °F 71% 30.09 in - Variable 2.3 mph - N/A   Clear
7:20 AM 51.8 °F - 37.4 °F 58% 30.09 in - Variable 2.3 mph - N/A   Clear
7:50 AM 55.4 °F - 41.0 °F 58% 30.12 in - Variable 2.3 mph - N/A   Clear
8:20 AM 59.0 °F - 39.2 °F 48% 30.12 in - ENE 3.5 mph - N/A   Clear
8:50 AM 60.8 °F - 39.2 °F 45% 30.12 in - East 5.8 mph - N/A   Clear
9:20 AM 62.6 °F - 37.4 °F 39% 30.15 in - NE 3.5 mph - N/A   Clear
9:50 AM 62.6 °F - 39.2 °F 42% 30.15 in - NE 6.9 mph - N/A   Clear
10:20 AM 64.4 °F - 39.2 °F 40% 30.15 in - ENE 4.6 mph - N/A   Clear
10:50 AM 66.2 °F - 37.4 °F 35% 30.15 in - NNE 3.5 mph - N/A   Clear
11:20 AM 66.2 °F - 37.4 °F 35% 30.15 in - East 8.1 mph - N/A   Clear
11:50 AM 66.2 °F - 37.4 °F 35% 30.15 in - East 5.8 mph - N/A   Clear
12:20 PM 66.2 °F - 35.6 °F 32% 30.15 in - NE 13.8 mph - N/A   Clear
12:50 PM 68.0 °F - 37.4 °F 33% 30.15 in - NE 15.0 mph - N/A   Clear
1:20 PM 68.0 °F - 37.4 °F 33% 30.15 in - ENE 15.0 mph - N/A   Clear
1:50 PM 68.0 °F - 37.4 °F 33% 30.15 in - ENE 9.2 mph - N/A   Clear
2:20 PM 68.0 °F - 37.4 °F 33% 30.15 in - East 11.5 mph - N/A   Clear
2:50 PM 68.0 °F - 37.4 °F 33% 30.15 in - East 10.4 mph - N/A   Clear
3:20 PM 68.0 °F - 37.4 °F 33% 30.15 in - East 9.2 mph - N/A   Clear
3:50 PM 68.0 °F - 37.4 °F 33% 30.15 in - East 8.1 mph - N/A   Clear
4:20 PM 68.0 °F - 37.4 °F 33% 30.15 in - East 6.9 mph - N/A   Clear
4:50 PM 66.2 °F - 35.6 °F 32% 30.18 in - ESE 3.5 mph - N/A   Clear
5:20 PM 66.2 °F - 35.6 °F 32% 30.18 in - ESE 3.5 mph - N/A   Clear
5:50 PM 60.8 °F - 41.0 °F 48% 30.18 in - WNW 8.1 mph - N/A   Clear
6:20 PM 59.0 °F - 41.0 °F 51% 30.21 in - NW 8.1 mph - N/A   Clear
6:50 PM 59.0 °F - 41.0 °F 51% 30.21 in - WNW 6.9 mph - N/A   Clear
7:20 PM 57.2 °F - 41.0 °F 55% 30.21 in - WNW 5.8 mph - N/A   Clear
7:50 PM 59.0 °F - 41.0 °F 51% 30.21 in - North 3.5 mph - N/A   Clear
8:20 PM 57.2 °F - 41.0 °F 55% 30.21 in - North 3.5 mph - N/A   Clear
8:50 PM 55.4 °F - 41.0 °F 58% 30.24 in - NNW 3.5 mph - N/A   Clear
9:20 PM 55.4 °F - 41.0 °F 58% 30.24 in - Variable 1.2 mph - N/A   Clear
9:50 PM 51.8 °F - 41.0 °F 67% 30.24 in - West 3.5 mph - N/A   Clear
10:20 PM 51.8 °F - 41.0 °F 67% 30.24 in - Variable 2.3 mph - N/A   Clear
10:50 PM 50.0 °F - 41.0 °F 71% 30.24 in - WSW 4.6 mph - N/A   Clear
11:20 PM 48.2 °F - 39.2 °F 71% 30.24 in - West 4.6 mph - N/A   Clear
11:50 PM 51.8 °F - 41.0 °F 67% 30.27 in - West 2.3 mph - N/A   Clear